TimeHST,TemperatureF,Dew PointF,Humidity,Sea Level PressureIn,VisibilityMPH,Wind Direction,Wind SpeedMPH,Gust SpeedMPH,PrecipitationIn,Events,Conditions,WindDirDegrees,DateUTC
12:54 AM,69.1,-9999,N/A,30.15,10.0,NNE,20.7,31.1,0.01,,Overcast,30,2014-03-16 10:54:00
1:54 AM,68.0,-9999,N/A,30.14,10.0,NNE,24.2,-,0.00,,Overcast,30,2014-03-16 11:54:00
2:54 AM,69.1,-9999,N/A,30.13,10.0,NNE,23.0,29.9,0.00,Rain,Light Rain,30,2014-03-16 12:54:00
3:54 AM,69.1,-9999,N/A,30.12,10.0,NNE,23.0,29.9,0.00,,Overcast,30,2014-03-16 13:54:00
4:54 AM,69.1,-9999,N/A,30.12,10.0,NNE,21.9,31.1,N/A,,Overcast,30,2014-03-16 14:54:00
5:54 AM,70.0,57.2,64,30.12,10.0,NNE,19.6,28.8,N/A,,Overcast,30,2014-03-16 15:54:00
6:54 AM,70.0,57.2,64,30.14,10.0,NE,19.6,-,0.00,,Overcast,50,2014-03-16 16:54:00
7:54 AM,69.1,59.0,70,30.15,10.0,NE,20.7,32.2,0.00,,Mostly Cloudy,40,2014-03-16 17:54:00
8:54 AM,72.0,60.8,68,30.17,10.0,NE,21.9,29.9,N/A,,Mostly Cloudy,50,2014-03-16 18:54:00
9:54 AM,75.0,60.8,61,30.17,10.0,NE,25.3,32.2,N/A,,Partly Cloudy,40,2014-03-16 19:54:00
10:54 AM,75.9,-9999,N/A,30.15,10.0,NE,21.9,31.1,N/A,,Partly Cloudy,40,2014-03-16 20:54:00
11:54 AM,75.9,60.8,59,30.14,10.0,NE,21.9,31.1,N/A,,Scattered Clouds,50,2014-03-16 21:54:00
12:54 PM,77.0,60.8,57,30.12,10.0,NE,24.2,-,N/A,,Mostly Cloudy,40,2014-03-16 22:54:00
1:54 PM,78.1,60.8,55,30.09,10.0,NE,21.9,-,N/A,,Scattered Clouds,40,2014-03-16 23:54:00
2:54 PM,75.9,62.6,63,30.07,10.0,NE,20.7,28.8,N/A,,Scattered Clouds,40,2014-03-17 00:54:00
3:54 PM,75.9,64.4,67,30.06,10.0,NE,24.2,32.2,N/A,,Scattered Clouds,40,2014-03-17 01:54:00
4:54 PM,71.1,64.4,79,30.06,10.0,NE,11.5,-,N/A,,Overcast,40,2014-03-17 02:54:00
5:54 PM,71.1,64.4,79,30.08,10.0,ENE,12.7,25.3,0.00,,Scattered Clouds,60,2014-03-17 03:54:00
6:54 PM,68.0,64.4,88,30.09,10.0,NE,11.5,-,0.00,Rain,Light Rain,40,2014-03-17 04:54:00
7:54 PM,68.0,64.4,88,30.09,10.0,NE,10.4,-,0.00,,Partly Cloudy,50,2014-03-17 05:54:00
8:54 PM,70.0,64.4,82,30.09,10.0,NE,16.1,21.9,N/A,,Scattered Clouds,50,2014-03-17 06:54:00
9:54 PM,68.0,62.6,83,30.09,10.0,ENE,13.8,-,0.00,,Overcast,60,2014-03-17 07:54:00
10:54 PM,71.1,60.8,70,30.10,10.0,NE,20.7,27.6,N/A,,Overcast,40,2014-03-17 08:54:00
11:54 PM,72.0,-9999,N/A,30.09,10.0,NE,17.3,25.3,N/A,,Overcast,50,2014-03-17 09:54:00